TimeAKST,TemperatureF,Dew PointF,Humidity,Sea Level PressureIn,VisibilityMPH,Wind Direction,Wind SpeedMPH,Gust SpeedMPH,PrecipitationIn,Events,Conditions,WindDirDegrees,DateUTC
12:48 AM,19.4,14.0,80,30.19,10.0,ENE,15.0,-,N/A,,Scattered Clouds,70,2013-01-27 09:48:00
12:53 AM,19.9,14.0,78,30.15,10.0,ENE,16.1,-,N/A,,Partly Cloudy,70,2013-01-27 09:53:00
1:53 AM,19.0,12.9,77,30.15,10.0,ENE,18.4,-,N/A,,Scattered Clouds,60,2013-01-27 10:53:00
3:16 AM,19.4,12.2,74,30.18,10.0,ENE,18.4,-,N/A,,Mostly Cloudy,70,2013-01-27 12:16:00
3:49 AM,19.4,10.4,68,30.19,10.0,ENE,20.7,-,N/A,,Scattered Clouds,60,2013-01-27 12:49:00
3:53 AM,19.0,12.0,74,30.16,10.0,ENE,17.3,-,N/A,,Scattered Clouds,60,2013-01-27 12:53:00
4:02 AM,19.4,12.2,74,30.19,10.0,ENE,20.7,-,N/A,,Mostly Cloudy,60,2013-01-27 13:02:00
4:53 AM,19.0,12.0,74,30.15,10.0,NE,21.9,-,N/A,,Overcast,50,2013-01-27 13:53:00
5:53 AM,19.0,10.9,71,30.15,10.0,NE,19.6,-,N/A,,Mostly Cloudy,50,2013-01-27 14:53:00
6:41 AM,17.6,10.4,73,30.18,10.0,NE,18.4,-,N/A,,Scattered Clouds,50,2013-01-27 15:41:00
6:53 AM,19.0,12.0,74,30.14,10.0,NE,19.6,-,N/A,,Mostly Cloudy,50,2013-01-27 15:53:00
7:53 AM,19.0,12.9,77,30.14,10.0,ENE,23.0,-,N/A,,Overcast,60,2013-01-27 16:53:00
8:53 AM,19.0,12.9,77,30.14,10.0,NE,23.0,-,N/A,,Overcast,50,2013-01-27 17:53:00
9:53 AM,18.0,12.0,78,30.13,9.0,ENE,25.3,33.4,N/A,,Overcast,60,2013-01-27 18:53:00
10:53 AM,18.0,12.0,78,30.12,5.0,NE,31.1,36.8,0.00,Snow,Light Snow,50,2013-01-27 19:53:00
11:53 AM,19.0,12.9,77,30.11,3.0,NE,32.2,-,0.00,Snow,Light Snow,50,2013-01-27 20:53:00
12:34 PM,17.6,12.2,79,30.14,2.5,ENE,34.5,40.3,0.00,Snow,Light Snow,60,2013-01-27 21:34:00
12:53 PM,19.0,12.9,77,30.11,2.5,NE,32.2,39.1,0.00,Snow,Light Snow,50,2013-01-27 21:53:00
1:53 PM,18.0,12.9,81,30.08,1.8,NE,34.5,-,0.00,Snow,Light Snow,50,2013-01-27 22:53:00
2:53 PM,18.0,12.9,81,30.05,1.5,NE,35.7,43.7,0.00,Snow,Light Snow,50,2013-01-27 23:53:00
3:11 PM,17.6,12.2,79,30.07,1.0,NE,35.7,44.9,0.00,Snow,Light Snow,50,2013-01-28 00:11:00
3:25 PM,17.6,12.2,79,30.07,1.2,NE,36.8,42.6,0.00,Snow,Light Snow,50,2013-01-28 00:25:00
3:44 PM,17.6,12.2,79,30.06,1.0,ENE,39.1,47.2,0.00,Snow,Light Snow,60,2013-01-28 00:44:00
3:53 PM,18.0,12.9,81,30.03,1.2,NE,35.7,47.2,0.00,Snow,Light Snow,50,2013-01-28 00:53:00
4:31 PM,17.6,12.2,79,30.04,1.0,ENE,40.3,48.3,0.00,Snow,Light Snow,60,2013-01-28 01:31:00
4:51 PM,17.6,12.2,79,30.02,1.2,NE,42.6,47.2,0.00,Snow,Light Snow,50,2013-01-28 01:51:00
4:53 PM,18.0,12.9,81,30.00,1.2,NE,38.0,47.2,0.00,Snow,Light Snow,50,2013-01-28 01:53:00
5:53 PM,18.0,12.9,81,29.98,1.2,NE,39.1,48.3,0.00,Snow,Light Snow,50,2013-01-28 02:53:00
6:04 PM,17.6,12.2,79,30.01,1.0,NE,42.6,50.6,0.00,Snow,Light Snow,50,2013-01-28 03:04:00
6:51 PM,17.6,12.2,79,29.99,1.8,ENE,40.3,50.6,0.00,Snow,Light Snow,60,2013-01-28 03:51:00
6:53 PM,18.0,12.0,78,29.96,2.0,ENE,43.7,50.6,0.00,Snow,Light Snow,60,2013-01-28 03:53:00
7:15 PM,17.6,12.2,79,29.98,1.8,NE,41.4,51.8,0.00,Snow,Light Snow,50,2013-01-28 04:15:00
7:25 PM,17.6,12.2,79,29.99,2.5,ENE,38.0,51.8,0.00,Snow,Light Snow,60,2013-01-28 04:25:00
7:46 PM,17.6,12.2,79,29.95,1.5,NE,43.7,51.8,0.00,Snow,Light Snow,50,2013-01-28 04:46:00
7:53 PM,18.0,12.0,78,29.93,1.8,NE,44.9,51.8,0.00,Snow,Light Snow,50,2013-01-28 04:53:00
8:08 PM,17.6,12.2,79,29.96,2.0,NE,42.6,51.8,0.00,Snow,Light Snow,50,2013-01-28 05:08:00
8:53 PM,17.1,10.9,77,29.92,2.5,NE,42.6,54.1,0.00,Snow,Light Snow,50,2013-01-28 05:53:00
9:32 PM,17.6,10.4,73,29.94,3.0,NE,42.6,49.5,0.00,Snow,Light Snow,50,2013-01-28 06:32:00
9:53 PM,17.1,10.9,77,29.90,2.5,NE,44.9,54.1,0.00,Snow,Light Snow,50,2013-01-28 06:53:00
10:05 PM,17.6,10.4,73,29.92,4.0,NE,44.9,55.2,0.00,Snow,Light Snow,50,2013-01-28 07:05:00
10:53 PM,16.0,10.9,81,29.87,3.0,NE,43.7,52.9,0.00,Snow,Light Snow,50,2013-01-28 07:53:00
11:18 PM,15.8,10.4,79,29.89,2.5,NE,43.7,52.9,0.00,Snow,Light Snow,50,2013-01-28 08:18:00
11:53 PM,16.0,10.0,77,29.84,2.5,NE,46.0,51.8,0.00,Snow,Light Snow,50,2013-01-28 08:53:00